{"data":{"norad_id":68889,"epoch":"2026-09-20T04:22:55.128864Z","epoch_age_seconds":42820,"freshness":"FRESH","line1":"1 68889U 26095AB  26263.18258251 -.00000779  00000+0 -73211-4 0  9994","line2":"2 68889  51.9007 188.1020 0000900  82.9914 277.1150 14.79927814 21711","mean_motion":14.79927814,"eccentricity":9.0e-5,"inclination_deg":51.9007,"raan_deg":188.102,"arg_perigee_deg":82.9914,"mean_anomaly_deg":277.115,"bstar":-7.3211e-5,"rev_number":2171,"period_min":97.302043138707,"perigee_km":628.92130812969,"apogee_km":630.18269214972,"semimajor_km":7007.6890001397,"source":"CELESTRAK","updated_at":"2026-09-20T09:00:24.541701Z"}}